Погода в Тируччираппалли

Индия     10°48′20″N   78°41′41″E
темп.,
°C
ветер,
м/с
пор.,
м/с
влажн.,
%
обл.,
%
осадки,
мм/ч
давл.,
гПа
погр.,
м
24 мая, вт
вт2423:30+30з5105872 0.1 1005517
02:30+29з5863100 0.0 1004459
05:30+28з5969100 0.0 1005481
08:30+31з785738 0.0 1007771
11:30+37з553793 0.0 10061816
14:30+40зсз432523 0.0 10033839
17:30+37юв543373 0.0 10031092
20:30+27юз7108099 4.6 1007328
25 мая, ср
ср2523:30+28зюз4664100 7.6 1008208
02:30+29зсз5964100 0.0 1006528
05:30+28з4668100 0.0 1007290
08:30+30з4557100 0.0 1009603
11:30+35зюз5540100 0.0 10081326
14:30+38юз433274 0.0 10052365
17:30+36ююв6535100 0.0 10041119
20:30+31ю69573 0.3 1007874
26 мая, чт
чт2623:30+30зюз486297 0.4 1009853
02:30+29з4106476 0.0 1007632
05:30+28зюз5107086 0.0 1007473
08:30+31з455613 0.0 1009792
11:30+36зюз45395 0.0 10081588
14:30+38юз4431100 0.0 10042520
17:30+38з233180 0.0 10032501
20:30+30зсз4559100 1.1 1008323
27 мая, пт
пт2723:30+29с4564100 3.0 1009515
02:30+27зсз3568100 0.0 1007409
05:30+27з71270100 0.0 1007645
08:30+30з6857100 0.0 1009865
11:30+35з674039 0.0 10071536
14:30+38з553166 0.0 10042975
17:30+36з553565 0.1 10031764
20:30+28ююз6971100 7.1 1008632
28 мая, сб
сб2823:30+28зюз3766100 7.4 1008544
02:30+28з7126373 0.0 1006567
05:30+27з510667 0.0 1006437
08:30+30з7105562 0.3 1008777
11:30+36з67367 0.3 10071723
14:30+38з562921 0.0 10032801
17:30+34ююз6742100 0.3 1003801
20:30+27ю8127288 2.0 1007445